This demonstration page uses our WeatherBlox Daily Observations layout. Learn more.

Left ArrowRight Arrow

39.08367, -84.50855

Hourly Observations for May 13, 2017

Temp ( °F °C ) Dew Point ( °F °C ) Humidity (%) Winds ( mph kmh ) Pressure ( in mb ) Visibility ( mi km ) Precip ( " mm )
12:16 am 00:16 Clear with Mist and Fog 48 8.9 48 8.9 100 100 N N/A 29.94 1014 1.75 2.816345 N/A
12:30 am 00:30 Clear with Mist and Fog 49 9.4 49 9.4 100 100 N N/A 29.94 1014 3 4.82802 N/A
12:53 am 00:53 Clear 49 9.4 49 9.4 100 100 N N/A 29.9 1013 7 11.26538 N/A
1:06 am 01:06 Clear with Mist and Fog 48 8.9 48 8.9 100 100 N N/A 29.94 1014 1.5 2.41401 N/A
1:17 am 01:17 Clear with Fog 48 8.9 48 8.9 100 100 N N/A 29.94 1014 0.5 0.80467 N/A
1:35 am 01:35 Clear with Mist and Fog 48 8.9 48 8.9 100 100 N N/A 29.94 1014 1 1.60934 N/A
1:49 am 01:49 Mostly Cloudy with Fog 48 9 48 9 100 100 N N/A 29.94 1014 0.5 0.80467 N/A
1:53 am 01:53 Mostly Cloudy with Fog 47 8.3 47 8.3 100 100 N N/A 29.89 1012 0.25 0.402335 N/A
2:05 am 02:05 Mostly Cloudy with Mist and Fog 46 7.8 46 7.8 100 100 N N/A 29.91 1013 1 1.60934 N/A
2:12 am 02:12 Mostly Clear with Mist and Fog 46 7.8 46 7.8 100 100 N N/A 29.91 1013 2.5 4.02335 N/A
2:19 am 02:19 Clear with Mist and Fog 47 8.3 47 8.3 100 100 N N/A 29.91 1013 3 4.82802 N/A
2:21 am 02:21 Clear with Mist and Fog 47 8.3 47 8.3 100 100 N N/A 29.91 1013 1.5 2.41401 N/A
2:29 am 02:29 Clear with Mist and Fog 46 7.8 46 7.8 100 100 N N/A 29.91 1013 0.75 1.207005 N/A
2:35 am 02:35 Mostly Cloudy with Mist and Fog 46 7.8 46 7.8 100 100 N N/A 29.91 1013 0.75 1.207005 N/A
2:53 am 02:53 Mostly Cloudy with Fog 46 7.8 46 7.8 100 100 N N/A 29.89 1012 0.25 0.402335 N/A
3:04 am 03:04 Mostly Cloudy with Mist and Fog 46 7.8 46 7.8 100 100 N N/A 29.91 1013 0.75 1.207005 N/A
3:21 am 03:21 Mostly Cloudy with Fog 46 7.8 46 7.8 100 100 N N/A 29.91 1013 0.25 0.402335 N/A
3:53 am 03:53 Mostly Cloudy with Fog 45 7.2 45 7.2 100 100 N N/A 29.89 1012 0.25 0.402335 N/A
4:04 am 04:04 Mostly Cloudy with Mist and Fog 44 6.7 44 6.7 100 100 N N/A 29.91 1013 0.75 1.207005 N/A
4:07 am 04:07 Mostly Clear with Mist and Fog 44 6.7 44 6.7 100 100 N N/A 29.91 1013 1.25 2.011675 N/A
4:18 am 04:18 Mostly Cloudy with Mist and Fog 44 6.7 44 6.7 100 100 N N/A 29.91 1013 0.75 1.207005 N/A
4:27 am 04:27 Mostly Cloudy with Fog 44 6.7 44 6.7 100 100 N N/A 29.91 1013 0.25 0.402335 N/A
4:44 am 04:44 Mostly Cloudy with Mist and Fog 44 6.7 44 6.7 100 100 N N/A 29.91 1013 1 1.60934 N/A
4:48 am 04:48 Partly Cloudy with Mist and Fog 43 6 43 6 100 100 N N/A 29.91 1013 2 3.21868 N/A
4:50 am 04:50 Mostly Cloudy with Mist and Fog 43 6 43 6 100 100 N N/A 29.91 1013 1 1.60934 N/A
4:53 am 04:53 Mostly Cloudy with Fog 43 6.1 43 6.1 100 100 N N/A 29.89 1012 0.5 0.80467 N/A
5:11 am 05:11 Mostly Cloudy with Mist and Fog 44 6.7 44 6.7 100 100 N N/A 29.94 1014 0.75 1.207005 N/A
5:15 am 05:15 Mostly Clear with Mist and Fog 44 6.7 44 6.7 100 100 N N/A 29.94 1014 1.25 2.011675 N/A
5:21 am 05:21 Mostly Clear with Mist and Fog 45 7.2 45 7.2 100 100 N N/A 29.94 1014 3 4.82802 N/A
5:34 am 05:34 Partly Cloudy with Mist and Fog 43 6.1 43 6.1 100 100 N N/A 29.94 1014 1.25 2.011675 N/A
5:38 am 05:38 Mostly Cloudy with Fog 43 6.1 43 6.1 100 100 N N/A 29.94 1014 0.25 0.402335 N/A
5:48 am 05:48 Mostly Cloudy with Fog 45 7 45 7 100 100 N N/A 29.94 1014 0.25 0.402335 N/A
5:53 am 05:53 Mostly Cloudy with Fog 43 6.1 43 6.1 100 100 N N/A 29.91 1013 0.25 0.402335 N/A
6:13 am 06:13 Mostly Cloudy with Mist and Fog 45 7.2 45 7.2 100 100 N N/A 29.94 1014 0.75 1.207005 N/A
6:22 am 06:22 Mostly Cloudy with Fog 43 6.1 43 6.1 100 100 N N/A 29.94 1014 0.5 0.80467 N/A
6:29 am 06:29 Mostly Cloudy with Fog 43 6.1 43 6.1 100 100 N N/A 29.94 1014 0.25 0.402335 N/A
6:53 am 06:53 Partly Cloudy with Patchy Fog 43 6.1 43 6.1 100 100 N N/A 29.93 1013 3 4.82802 N/A
7:53 am 07:53 Sunny with Mist and Fog 48 8.9 48 8.9 100 100 N N/A 29.93 1013 5 8.0467 N/A
8:53 am 08:53 Sunny 54 12.2 51 10.6 90 90 N N/A 29.93 1014 8 12.87472 N/A
9:53 am 09:53 Sunny 59 15 51 10.6 75 75 N N/A 29.94 1014 10 16.0934 N/A
10:53 am 10:53 Sunny 64 17.8 52 11.1 65 65 VRB 3 6 29.94 1014 10 16.0934 N/A
11:53 am 11:53 Sunny 68 20 50 10 53 53 E 3 6 29.93 1014 10 16.0934 N/A
12:53 pm 12:53 Partly Cloudy 69 20.6 50 10 51 51 N N/A 29.93 1013 10 16.0934 N/A
1:53 pm 13:53 Partly Cloudy 70 21.1 49 9.4 47 47 VRB 3 6 29.91 1013 10 16.0934 N/A
2:53 pm 14:53 Mostly Cloudy 72 22.2 51 10.6 48 48 WSW 7 11 29.9 1012 10 16.0934 N/A
3:53 pm 15:53 Sunny 74 23.3 51 10.6 45 45 NNW 13 20 29.88 1012 10 16.0934 N/A
4:53 pm 16:53 Sunny 72 22.2 49 9.4 44 44 WNW 8 13 29.87 1012 10 16.0934 N/A
5:53 pm 17:53 Mostly Sunny 73 22.8 51 10.6 46 46 W 7 11 29.86 1011 10 16.0934 N/A
6:53 pm 18:53 Sunny 73 22.8 49 9.4 43 43 WNW 6 9 29.86 1011 10 16.0934 N/A
7:53 pm 19:53 Sunny 69 20.6 50 10 51 51 WNW 6 9 29.85 1011 10 16.0934 N/A
8:53 pm 20:53 Clear 65 18.3 48 8.9 54 54 N N/A 29.85 1011 10 16.0934 N/A
9:53 pm 21:53 Clear 57 13.9 54 12.2 90 90 S 3 6 29.87 1011 10 16.0934 N/A
10:53 pm 22:53 Clear 54 12.2 52 11.1 93 93 SW 3 6 29.87 1012 10 16.0934 N/A
11:53 pm 23:53 Clear 54 12.2 52 11.1 93 93 SW 5 7 29.86 1011 10 16.0934 N/A

Powered by AerisWeather